Flag for Germany Weather past 2 weeks in Maintal, Hesse, Germany

Now
53 °F

Overcast.


Feels Like: 50 °F
Forecast: 44 / 50 °F
Wind: 8 mph from Southwest

Location: Frankfurt / M-Flughafen

Current Time: Mar 29, 2015 at 5:24:50 AM

Latest Report: Mar 29, 2015 at 5:00 AM


Visibility: 28 mi

Pressure: 29.82 "Hg

Humidity: 83%

Dew point: 48 °F

Location of MaintalLocation

Historic Weather in Maintal — Graph

°F

Maintal temperature yesterday

Maximum temperature yesterday: 56 °F (at 3:00 PM)
Minimum temperature yesterday: 36 °F (at 7:00 AM)
Average temperature yesterday: 47 °F

Past Weeks' High & Low Weather Summary

 TemperatureHumidityPressure
High64 °F (Mar 18, 4:00 PM)97% (Mar 21, 6:00 AM)30.31 "Hg (Mar 21, 6:00 AM)
Low29 °F (Mar 24, 5:00 AM)32% (Mar 26, 5:00 PM)29.60 "Hg (Mar 25, 3:00 PM)
Average46 °F70%30.10 "Hg
* Reported Mar 14 3:00 AM — Mar 29 4:00 AM, Maintal, Weather by CustomWeather, © 2015

Note: Actual official high and low records may vary slightly from our data, if they occured in-between our weather recording intervals... More about our weather records

Advertising

Maintal weather history for previous 24 hours

 ConditionsComfort  
Time TempWeatherWind HumidityBarometerVisibility
4:00 AM
Sun, Mar 29
53 °FOvercast.6 mph83%29.83 "Hg16 mi
3:00 AM49 °FOvercast.8 mph88%29.86 "Hg16 mi
1:00 AM50 °FOvercast.7 mph89%29.90 "Hg16 mi
12:00 AM49 °FOvercast.7 mph92%29.92 "Hg12 mi
11:00 PM
Sat, Mar 28
50 °FLight rain. Overcast.8 mph85%29.94 "Hg9 mi
9:00 PM50 °FOvercast.6 mph75%30.00 "Hg22 mi
8:00 PM50 °FOvercast.6 mph74%30.01 "Hg19 mi
7:00 PM49 °FLight rain. Overcast.6 mph74%30.01 "Hg12 mi
6:00 PM49 °FLight rain. Overcast.8 mph77%30.02 "Hg11 mi
5:00 PM52 °FLight rain. Overcast.6 mph65%30.02 "Hg22 mi
3:00 PM56 °FOvercast.8 mph40%30.05 "Hg25 mi
2:00 PM55 °FPartly sunny.7 mph38%30.06 "Hg25 mi
1:00 PM54 °FPassing clouds.8 mph39%30.11 "Hg28 mi
12:00 PM52 °FScattered clouds.5 mph41%30.14 "Hg28 mi
11:00 AM51 °FPartly sunny.5 mph48%30.17 "Hg28 mi
9:00 AM45 °FOvercast.3 mph65%30.21 "Hg28 mi
8:00 AM43 °FPartly sunny.3 mph71%30.22 "Hg28 mi
7:00 AM36 °FScattered clouds.2 mph88%30.24 "Hg28 mi
6:00 AM37 °FOvercast.3 mph84%30.24 "Hg22 mi
5:00 AM38 °FOvercast.1 mph84%30.24 "Hg25 mi
Weather by CustomWeather, © 2015

See weather overviewHow to use our weather pages